�N����,����,�~����,�C��,���x,�C��,����,���ϕ���,�ő�u�ԕ���,�ő厞����,���˗�,�I�_���x,�n�����x,�ő啗���N��,DTYPE
"16/05/27","00:10",0.0,21.3,93.7,1003.1,279.1,0.5,0.6,297.0,0.00,20.3,22.0,"00:05:20",1
"16/05/27","00:20",0.0,21.3,93.9,1003.1,282.2,0.2,0.8,326.9,0.00,20.3,22.0,"00:11:12",1
"16/05/27","00:30",0.0,21.3,94.0,1003.1,325.5,0.3,0.8,6.0,0.00,20.3,21.8,"00:24:40",1
"16/05/27","00:40",0.0,21.3,94.1,1003.1,272.4,0.2,0.6,305.9,0.00,20.4,22.1,"00:39:44",1
"16/05/27","00:50",0.0,21.3,94.2,1002.9,329.9,0.7,1.4,334.5,0.00,20.4,22.0,"00:40:02",1
"16/05/27","01:00",0.0,21.2,94.1,1003.1,342.2,0.6,1.1,339.1,0.00,20.3,21.9,"00:51:52",1
"16/05/27","01:10",0.0,21.2,94.2,1002.9,300.3,0.3,0.8,330.9,0.00,20.3,22.1,"01:00:32",1
"16/05/27","01:20",0.0,21.2,94.3,1002.6,290.6,0.3,0.6,329.7,0.00,20.3,21.9,"01:11:28",1
"16/05/27","01:30",0.0,21.1,94.4,1002.6,274.7,0.0,0.3,288.8,0.00,20.2,21.9,"01:22:16",1
"16/05/27","01:40",0.0,21.1,94.5,1002.6,279.3,0.2,0.6,316.3,0.00,20.2,21.7,"01:39:52",1
"16/05/27","01:50",0.0,21.1,94.5,1002.4,338.3,0.6,1.2,347.3,0.00,20.2,21.8,"01:43:20",1
"16/05/27","02:00",0.0,21.2,94.6,1002.4,283.0,0.2,0.5,303.4,0.00,20.3,21.9,"01:55:52",1
"16/05/27","02:10",0.0,21.1,94.6,1002.6,300.7,0.1,0.5,312.2,0.00,20.2,21.7,"02:03:20",1
"16/05/27","02:20",0.0,21.1,94.7,1002.2,321.3,0.5,0.8,338.2,0.00,20.3,21.7,"02:18:00",1
"16/05/27","02:30",0.0,21.1,94.8,1002.2,305.4,0.2,0.8,340.2,0.00,20.3,21.9,"02:21:28",1
"16/05/27","02:40",0.0,21.1,94.8,1002.4,300.1,0.3,0.8,328.5,0.00,20.3,21.7,"02:36:40",1
"16/05/27","02:50",0.4,21.1,94.9,1002.4,319.5,0.2,0.5,322.1,0.00,20.3,21.8,"02:40:08",1
"16/05/27","03:00",0.0,21.0,94.9,1001.9,300.4,0.1,0.4,330.2,0.00,20.2,21.7,"02:58:08",1
"16/05/27","03:10",0.2,21.0,94.9,1002.2,263.1,0.0,0.3,297.9,0.00,20.2,21.7,"03:00:08",1
"16/05/27","03:20",0.0,21.0,95.0,1002.4,310.4,0.3,1.0,336.1,0.00,20.2,21.7,"03:17:52",1
"16/05/27","03:30",0.0,21.0,95.0,1002.4,310.2,0.5,1.3,330.1,0.00,20.2,21.7,"03:20:02",1
"16/05/27","03:40",0.0,21.0,95.0,1002.2,308.8,0.6,1.1,342.9,0.00,20.2,21.6,"03:30:40",1
"16/05/27","03:50",0.0,21.0,95.1,1002.4,303.2,0.6,0.8,315.0,0.00,20.2,21.6,"03:43:20",1
"16/05/27","04:00",0.2,21.0,95.2,1002.2,296.3,0.5,0.8,326.3,0.00,20.2,21.7,"03:57:52",1
"16/05/27","04:10",1.0,21.0,95.2,1002.4,308.4,0.2,0.8,313.5,0.00,20.2,21.5,"04:00:16",1
"16/05/27","04:20",1.0,20.9,95.3,1002.2,302.7,0.6,1.2,333.0,0.00,20.2,21.4,"04:12:32",1
"16/05/27","04:30",0.8,20.9,95.3,1002.4,287.8,0.5,1.1,308.4,0.00,20.2,21.5,"04:27:52",1
"16/05/27","04:40",0.6,20.5,93.7,1002.4,337.0,1.0,3.1,358.9,0.00,19.5,21.5,"04:39:52",1
"16/05/27","04:50",0.0,20.5,93.9,1003.1,301.9,0.8,2.9,4.8,0.00,19.5,21.6,"04:40:08",1
"16/05/27","05:00",0.0,20.6,93.5,1003.1,296.6,0.8,2.2,256.1,0.00,19.6,21.1,"04:56:56",1
"16/05/27","05:10",0.0,20.6,92.9,1002.9,345.7,0.7,1.8,329.0,0.00,19.5,21.5,"05:08:48",1
"16/05/27","05:20",0.0,20.4,91.3,1003.4,321.7,0.8,2.5,3.7,0.00,19.0,21.7,"05:15:12",1
"16/05/27","05:30",0.0,20.5,91.4,1003.1,332.8,0.7,1.8,356.3,0.00,19.1,21.4,"05:22:40",1
"16/05/27","05:40",0.0,20.4,90.0,1003.1,333.7,1.1,2.8,54.1,0.00,18.7,21.4,"05:32:56",1
"16/05/27","05:50",0.0,20.2,88.1,1003.4,325.8,1.0,2.7,346.0,0.00,18.2,21.4,"05:46:24",1
"16/05/27","06:00",0.0,20.3,87.2,1003.8,336.7,1.3,3.4,339.5,0.00,18.1,21.3,"05:54:08",1
"16/05/27","06:10",0.0,20.2,87.8,1004.1,313.0,1.0,2.9,330.8,0.00,18.2,21.3,"06:01:04",1
"16/05/27","06:20",0.0,20.0,87.3,1003.8,300.6,1.1,3.5,342.6,0.00,17.9,21.2,"06:14:56",1
"16/05/27","06:30",0.0,20.2,86.7,1003.8,308.5,0.8,1.7,342.1,0.02,18.0,21.2,"06:27:04",1
"16/05/27","06:40",0.0,20.3,86.6,1004.1,312.7,0.8,1.6,345.2,0.01,18.0,21.2,"06:36:32",1
"16/05/27","06:50",0.0,20.4,87.2,1004.3,326.0,1.2,3.1,352.5,0.03,18.2,21.3,"06:46:08",1
"16/05/27","07:00",0.0,20.5,87.1,1004.8,329.1,1.0,2.4,329.1,0.06,18.3,21.2,"06:56:48",1
"16/05/27","07:10",0.0,20.9,86.7,1004.5,342.0,1.0,2.0,333.4,0.09,18.6,21.2,"07:09:08",1
"16/05/27","07:20",0.0,20.9,82.5,1004.8,314.8,1.1,2.0,324.8,0.07,17.8,21.4,"07:10:08",1
"16/05/27","07:30",0.0,20.9,79.0,1004.5,323.2,1.3,3.5,344.4,0.06,17.2,21.2,"07:20:02",1
"16/05/27","07:40",0.0,20.9,81.5,1004.8,327.5,1.1,3.5,339.4,0.06,17.7,21.3,"07:30:48",1
"16/05/27","07:50",0.0,20.9,77.2,1005.0,351.5,1.0,2.9,350.7,0.10,16.8,21.4,"07:41:12",1
"16/05/27","08:00",0.0,21.0,74.9,1004.5,354.0,1.1,2.5,0.4,0.10,16.4,21.2,"07:59:04",1
"16/05/27","08:10",0.0,21.1,77.1,1004.5,343.1,1.6,3.1,349.8,0.14,17.0,21.5,"08:02:08",1
"16/05/27","08:20",0.0,21.4,73.9,1004.8,322.9,1.2,2.6,345.9,0.19,16.6,21.4,"08:15:20",1
"16/05/27","08:30",0.0,21.5,74.6,1004.5,324.3,1.0,2.5,356.5,0.10,16.8,21.5,"08:27:28",1
"16/05/27","08:40",0.0,21.2,74.3,1004.3,315.5,1.3,2.7,339.9,0.14,16.5,21.7,"08:37:20",1
"16/05/27","08:50",0.0,21.8,74.4,1004.8,328.6,1.6,3.3,349.3,0.23,17.1,21.7,"08:47:28",1
"16/05/27","09:00",0.0,22.1,72.4,1004.3,337.2,1.3,3.1,353.1,0.26,16.9,21.8,"08:57:44",1
"16/05/27","09:10",0.0,22.2,70.1,1004.5,329.5,1.2,2.2,346.7,0.26,16.5,21.7,"09:04:32",1
"16/05/27","09:20",0.0,23.2,68.7,1004.1,324.4,1.1,2.6,351.8,0.40,17.2,22.1,"09:17:28",1
"16/05/27","09:30",0.0,22.2,67.4,1004.3,323.6,1.1,2.8,21.2,0.24,15.9,22.3,"09:23:44",1
"16/05/27","09:40",0.0,22.1,68.7,1004.3,348.3,1.3,3.1,33.6,0.20,16.1,22.4,"09:37:04",1
"16/05/27","09:50",0.0,22.4,68.0,1003.8,348.2,0.8,2.9,345.8,0.21,16.2,22.5,"09:45:44",1
"16/05/27","10:00",0.0,22.8,69.2,1004.3,306.2,0.7,1.8,343.0,0.22,16.9,22.4,"09:52:56",1
"16/05/27","10:10",0.0,22.6,66.7,1004.1,339.4,1.2,2.9,350.9,0.23,16.1,22.7,"10:06:24",1
"16/05/27","10:20",0.0,22.8,67.9,1004.1,349.5,1.2,3.9,0.9,0.24,16.6,22.7,"10:19:28",1
"16/05/27","10:30",0.0,22.8,65.7,1004.1,354.7,1.6,3.5,346.3,0.26,16.1,22.7,"10:20:24",1
"16/05/27","10:40",0.0,22.6,65.4,1004.3,3.1,2.1,3.6,345.6,0.24,15.8,22.7,"10:31:52",1
"16/05/27","10:50",0.0,23.4,64.5,1003.6,356.9,1.7,3.9,7.6,0.32,16.4,23.0,"10:43:36",1
"16/05/27","11:00",0.0,23.3,66.2,1003.6,352.6,1.7,3.4,7.0,0.26,16.7,22.9,"10:58:08",1
"16/05/27","11:10",0.0,24.3,62.1,1003.4,356.6,2.0,3.3,1.8,0.47,16.6,23.1,"11:08:40",1
"16/05/27","11:20",0.0,25.1,62.0,1003.4,336.2,1.2,3.2,355.5,0.57,17.4,23.3,"11:12:56",1
"16/05/27","11:30",0.0,25.6,58.9,1002.9,304.4,0.8,2.2,1.6,0.58,17.0,23.6,"11:22:00",1
"16/05/27","11:40",0.0,24.9,58.5,1002.6,223.2,1.8,4.3,203.0,0.57,16.2,23.9,"11:35:20",1
"16/05/27","11:50",0.0,26.0,53.9,1002.6,147.7,1.1,2.6,221.5,0.61,16.0,24.0,"11:43:52",1
"16/05/27","12:00",0.0,26.7,53.7,1002.9,343.8,1.1,3.5,54.8,0.56,16.6,24.4,"11:59:44",1
"16/05/27","12:10",0.0,27.2,53.0,1002.9,359.7,0.8,2.5,345.1,0.55,16.8,24.8,"12:09:12",1
"16/05/27","12:20",0.0,26.0,53.9,1003.1,345.6,1.3,3.6,353.7,0.29,16.0,24.7,"12:10:56",1
"16/05/27","12:30",0.0,25.1,54.8,1002.2,355.9,1.8,3.9,353.6,0.18,15.4,24.7,"12:26:40",1
"16/05/27","12:40",0.0,25.0,54.7,1001.9,329.2,1.5,3.9,339.9,0.21,15.3,25.1,"12:37:28",1
"16/05/27","12:50",0.0,25.0,53.9,1002.6,339.2,1.7,3.7,38.5,0.21,15.1,24.8,"12:48:40",1
"16/05/27","13:00",0.0,25.2,54.5,1001.9,334.2,1.5,3.2,352.8,0.19,15.4,24.7,"12:52:00",1
"16/05/27","13:10",0.0,25.5,54.5,1001.9,351.2,1.3,2.9,3.1,0.21,15.7,24.7,"13:02:48",1
"16/05/27","13:20",0.0,26.1,52.9,1001.9,351.8,1.1,2.8,314.0,0.25,15.8,24.8,"13:19:52",1
"16/05/27","13:30",0.0,26.2,51.4,1001.9,353.6,1.3,3.5,354.0,0.28,15.4,24.7,"13:25:52",1
"16/05/27","13:40",0.0,26.4,48.1,1001.9,2.1,1.2,2.6,327.0,0.25,14.6,24.7,"13:33:52",1
"16/05/27","13:50",0.0,26.7,53.2,1001.5,357.6,1.0,2.4,8.2,0.25,16.4,24.7,"13:40:56",1
"16/05/27","14:00",0.0,26.8,48.5,1001.7,32.0,0.6,2.9,352.2,0.26,15.1,24.7,"13:59:20",1
"16/05/27","14:10",0.0,26.5,48.0,1001.5,351.4,1.2,4.1,2.2,0.28,14.6,24.8,"14:03:52",1
"16/05/27","14:20",0.0,27.9,44.9,1001.7,341.3,1.8,4.2,330.8,0.53,14.9,24.7,"14:17:04",1
"16/05/27","14:30",0.0,28.2,41.8,1001.5,355.2,1.2,3.3,348.5,0.52,14.0,24.9,"14:25:44",1
"16/05/27","14:40",0.0,28.3,42.9,1001.9,355.7,1.6,4.1,348.2,0.47,14.5,24.9,"14:35:52",1
"16/05/27","14:50",0.0,28.2,40.0,1001.5,333.5,1.3,2.9,7.2,0.44,13.4,25.0,"14:41:52",1
"16/05/27","15:00",0.0,28.3,41.4,1001.5,346.5,1.8,4.1,349.3,0.43,14.0,25.1,"14:52:00",1
"16/05/27","15:10",0.0,28.3,41.4,1001.0,347.5,1.8,3.6,12.2,0.41,14.0,24.9,"15:00:16",1
"16/05/27","15:20",0.0,28.3,41.3,1001.7,344.6,1.6,3.4,337.8,0.39,14.0,25.2,"15:12:00",1
"16/05/27","15:30",0.0,28.4,41.0,1001.5,340.7,1.2,3.1,1.3,0.36,13.9,25.1,"15:21:44",1
"16/05/27","15:40",0.0,28.6,35.6,1001.2,6.3,1.8,4.0,0.9,0.34,11.9,25.1,"15:33:36",1
"16/05/27","15:50",0.0,28.6,35.4,1001.2,356.5,1.8,4.9,8.1,0.32,11.9,24.9,"15:40:02",1
"16/05/27","16:00",0.0,28.2,37.0,1001.0,359.7,2.1,5.5,3.5,0.30,12.2,25.2,"15:50:08",1
"16/05/27","16:10",0.0,28.0,40.7,1000.8,357.4,2.1,4.0,351.4,0.27,13.5,24.9,"16:02:00",1
"16/05/27","16:20",0.0,27.7,39.7,1001.0,346.8,1.6,3.2,346.9,0.25,12.8,25.0,"16:12:32",1
"16/05/27","16:30",0.0,27.3,41.4,1000.8,344.5,2.0,3.7,13.3,0.22,13.1,24.8,"16:20:24",1
"16/05/27","16:40",0.0,26.8,40.6,1001.2,345.9,1.8,4.7,358.9,0.20,12.3,24.8,"16:32:16",1
"16/05/27","16:50",0.0,26.4,41.8,1001.2,336.2,1.6,3.7,336.1,0.15,12.4,24.6,"16:41:20",1
"16/05/27","17:00",0.0,26.0,45.2,1001.5,343.5,1.8,4.7,347.8,0.05,13.3,24.6,"16:52:08",1
"16/05/27","17:10",0.0,25.7,44.9,1001.2,332.9,1.7,4.1,344.2,0.04,12.9,24.4,"17:08:16",1
"16/05/27","17:20",0.0,25.4,47.1,1001.2,338.7,1.6,3.4,354.2,0.03,13.4,24.4,"17:14:56",1
"16/05/27","17:30",0.0,25.1,46.9,1001.7,318.0,1.2,2.1,321.9,0.03,13.0,24.1,"17:28:48",1
"16/05/27","17:40",0.0,24.8,49.1,1001.7,334.9,1.7,3.5,355.3,0.02,13.4,24.1,"17:36:00",1
"16/05/27","17:50",0.0,24.5,48.2,1001.9,340.9,1.7,3.7,341.4,0.02,12.9,23.9,"17:40:48",1
"16/05/27","18:00",0.0,24.3,50.0,1002.2,327.1,1.7,3.2,332.0,0.02,13.3,23.8,"17:54:48",1
"16/05/27","18:10",0.0,23.9,51.3,1002.2,336.2,2.0,4.4,345.4,0.02,13.3,23.7,"18:03:12",1
"16/05/27","18:20",0.0,23.5,52.0,1002.9,330.3,1.7,3.4,353.6,0.01,13.1,23.8,"18:19:20",1
"16/05/27","18:30",0.0,23.1,53.0,1003.1,337.7,2.0,3.7,344.0,0.00,13.0,23.5,"18:26:32",1
"16/05/27","18:40",0.0,22.7,53.4,1003.1,332.6,1.7,2.9,353.6,0.00,12.8,23.3,"18:32:24",1
"16/05/27","18:50",0.0,22.2,55.6,1003.1,317.2,1.0,1.8,352.3,0.00,12.9,23.4,"18:49:20",1
"16/05/27","19:00",0.0,21.7,57.8,1003.1,328.6,1.2,2.7,343.9,0.00,13.1,23.2,"18:56:00",1
"16/05/27","19:10",0.0,21.3,60.0,1003.6,328.6,1.8,4.1,352.2,0.00,13.3,23.0,"19:06:08",1
"16/05/27","19:20",0.0,21.0,59.6,1003.6,319.7,1.5,3.5,316.1,0.00,12.9,22.9,"19:18:40",1
"16/05/27","19:30",0.0,20.8,59.7,1003.6,335.0,1.6,4.2,343.4,0.00,12.7,23.0,"19:29:52",1
"16/05/27","19:40",0.0,20.5,61.2,1003.6,320.7,1.3,2.5,312.4,0.00,12.8,22.7,"19:31:12",1
"16/05/27","19:50",0.0,20.2,62.1,1003.8,329.5,1.3,3.3,354.5,0.00,12.8,22.5,"19:41:04",1
"16/05/27","20:00",0.0,20.2,61.7,1004.3,346.6,1.6,3.7,341.1,0.00,12.7,22.4,"19:51:52",1
"16/05/27","20:10",0.0,20.3,61.2,1004.1,13.2,1.3,3.3,1.8,0.00,12.6,22.5,"20:05:20",1
"16/05/27","20:20",0.0,20.2,62.5,1005.0,353.6,1.5,2.2,347.4,0.00,12.9,22.2,"20:12:56",1
"16/05/27","20:30",0.0,19.8,63.3,1004.8,335.3,1.0,1.8,331.5,0.00,12.7,22.2,"20:23:44",1
"16/05/27","20:40",0.0,19.6,63.5,1004.8,357.5,0.8,2.9,2.7,0.00,12.5,22.0,"20:34:00",1
"16/05/27","20:50",0.0,19.7,63.6,1004.8,0.4,0.8,1.7,54.5,0.00,12.6,21.9,"20:42:08",1
"16/05/27","21:00",0.0,19.4,66.2,1005.0,323.3,1.5,2.4,332.2,0.00,13.0,21.8,"20:55:36",1
"16/05/27","21:10",0.0,19.0,69.2,1005.0,323.5,1.6,2.4,343.2,0.00,13.3,21.7,"21:06:00",1
"16/05/27","21:20",0.0,18.4,71.6,1005.0,320.6,1.5,2.1,338.1,0.00,13.2,21.6,"21:14:48",1
"16/05/27","21:30",0.0,18.1,73.4,1005.0,318.4,1.5,2.0,343.1,0.00,13.3,21.7,"21:29:36",1
"16/05/27","21:40",0.0,18.0,73.0,1005.0,334.0,1.7,3.5,344.8,0.00,13.1,21.5,"21:34:00",1
"16/05/27","21:50",0.0,18.0,73.5,1004.5,338.2,2.0,3.9,338.6,0.00,13.2,21.4,"21:46:40",1
"16/05/27","22:00",0.0,18.0,73.7,1004.3,331.0,1.7,3.1,333.5,0.00,13.3,21.3,"21:53:44",1
"16/05/27","22:10",0.0,18.0,73.4,1004.5,332.1,2.0,3.4,334.4,0.00,13.2,21.2,"22:07:20",1
"16/05/27","22:20",0.0,18.1,73.8,1004.8,333.9,1.8,3.3,331.2,0.00,13.4,21.0,"22:17:12",1
"16/05/27","22:30",0.0,18.0,74.0,1005.0,337.9,2.1,3.9,331.3,0.00,13.3,21.0,"22:23:04",1
"16/05/27","22:40",0.0,18.0,74.1,1005.2,337.6,2.2,3.6,337.7,0.00,13.4,21.0,"22:37:36",1
"16/05/27","22:50",0.0,17.9,74.8,1005.2,333.6,2.1,3.4,339.9,0.00,13.4,21.1,"22:41:20",1
"16/05/27","23:00",0.0,17.9,74.6,1005.2,331.9,2.0,3.6,355.3,0.00,13.4,20.7,"22:55:20",1
"16/05/27","23:10",0.0,17.9,74.9,1005.0,324.7,1.6,2.5,337.1,0.00,13.4,20.7,"23:08:40",1
"16/05/27","23:20",0.0,17.9,74.2,1005.0,323.2,1.7,2.7,342.0,0.00,13.3,20.6,"23:10:40",1
"16/05/27","23:30",0.0,18.0,74.3,1005.0,319.4,1.8,2.7,310.0,0.00,13.4,20.7,"23:22:32",1
"16/05/27","23:40",0.0,17.8,75.0,1005.2,326.7,1.6,2.8,345.9,0.00,13.4,20.7,"23:32:40",1
"16/05/27","23:50",0.0,17.8,75.2,1005.0,321.4,1.8,2.5,355.2,0.00,13.4,20.7,"23:41:36",1
"16/05/27","24:00",0.0,17.8,75.4,1005.0,317.9,1.6,2.2,327.2,0.00,13.4,20.7,"23:50:40",1
